Location: Newark
(52.2583°N, 7.1190°W)
Time: 10:33:20
(UTC+00:00)

Transit 2A - All Passes

Search period start: 19 November 2019 00:00
Search period end: 29 November 2019 00:00
Orbit: 601 x 957 km, 66.7° (Epoch: 18 November)

Date Brightness Start Highest point End Pass type
(mag) Time Alt. Az. Time Alt. Az. Time Alt. Az.
19 Nov - 11:55:18 10° S 11:59:20 25° ESE 12:03:06 10° ENE daylight
19 Nov - 13:37:22 10° SW 13:42:12 61° NW 13:46:41 10° NE daylight
19 Nov - 15:22:51 10° WNW 15:26:11 19° NNW 15:29:23 10° NNE daylight
19 Nov - 17:09:03 10° NNW 17:11:04 13° N 17:13:05 10° NNE visible
19 Nov - 18:52:26 10° NNW 18:55:52 22° NNE 18:59:17 10° E visible
19 Nov - 20:35:15 10° NW 20:39:37 85° NE 20:44:04 10° SE visible
19 Nov - 22:19:37 10° WNW 22:22:09 15° WSW 22:24:43 10° SW night (unlit)
20 Nov - 11:22:04 10° SSE 11:25:23 18° ESE 11:28:31 10° ENE daylight
20 Nov - 13:03:07 10° SW 13:08:03 83° NW 13:12:35 10° NE daylight
20 Nov - 14:48:06 10° W 14:51:48 22° NNW 14:55:20 10° NNE daylight
20 Nov - 16:34:31 10° NNW 16:36:35 13° N 16:38:35 10° NNE daylight
20 Nov - 18:18:23 10° NNW 18:21:29 18° NNE 18:24:34 10° ENE visible
20 Nov - 20:01:08 10° NW 20:05:29 62° NE 20:09:52 10° SE visible
20 Nov - 21:44:53 10° WNW 21:48:14 22° WSW 21:51:39 10° SSW visible
21 Nov - 10:49:26 10° SE 10:51:28 13° ESE 10:53:28 10° E daylight
21 Nov - 12:29:01 10° SSW 12:33:55 73° SE 12:38:27 10° NE daylight
21 Nov - 14:13:26 10° W 14:17:28 27° NNW 14:21:18 10° NNE daylight
21 Nov - 15:59:52 10° NW 16:02:05 13° N 16:04:16 10° NNE daylight
21 Nov - 17:44:18 10° NNW 17:47:03 16° NNE 17:49:48 10° ENE visible
21 Nov - 19:27:04 10° NNW 19:31:17 45° NE 19:35:32 10° ESE visible
21 Nov - 21:10:26 10° NW 21:14:17 31° WSW 21:18:12 10° S visible
22 Nov - 11:55:04 10° SSW 11:59:50 52° ESE 12:04:16 10° NE daylight
22 Nov - 13:38:50 10° WSW 13:43:10 34° NW 13:47:15 10° NNE daylight
22 Nov - 15:25:07 10° NW 15:27:37 14° NNW 15:30:03 10° NNE daylight
22 Nov - 17:10:10 10° NNW 17:12:37 14° NNE 17:15:02 10° NE visible
22 Nov - 18:53:01 10° NNW 18:57:02 35° NE 19:01:05 10° ESE visible
22 Nov - 20:36:07 10° NW 20:40:16 44° WSW 20:44:30 10° SSE visible
23 Nov - 11:21:18 10° S 11:25:48 37° ESE 11:30:01 10° NE daylight
23 Nov - 13:04:21 10° WSW 13:08:55 43° NW 13:13:12 10° NNE daylight
23 Nov - 14:50:19 10° WNW 14:53:09 16° NNW 14:55:55 10° NNE daylight
23 Nov - 16:35:58 10° NNW 16:38:08 13° N 16:40:17 10° NE daylight
23 Nov - 18:18:58 10° NNW 18:22:44 27° NE 18:26:32 10° E visible
23 Nov - 20:01:54 10° NW 20:06:13 63° SW 20:10:37 10° SSE visible
24 Nov - 10:47:43 10° S 10:51:48 27° ESE 10:55:38 10° ENE daylight
24 Nov - 12:29:58 10° SW 12:34:42 57° NW 12:39:08 10° NE daylight
24 Nov - 14:15:32 10° WNW 14:18:44 18° NNW 14:21:50 10° NNE daylight
24 Nov - 16:01:38 10° NNW 16:03:38 13° N 16:05:38 10° NNE daylight
24 Nov - 17:44:56 10° NNW 17:48:24 23° NNE 17:51:54 10° E visible
24 Nov - 19:27:44 10° NW 19:32:06 89° WSW 19:36:35 10° SE visible
24 Nov - 21:12:16 10° WNW 21:14:36 14° WSW 21:16:57 10° SW visible
25 Nov - 10:14:26 10° SSE 10:17:51 19° ESE 10:21:05 10° ENE daylight
25 Nov - 11:55:42 10° SW 12:00:32 78° NW 12:05:02 10° NE daylight
25 Nov - 13:40:47 10° WNW 13:44:21 21° NNW 13:47:47 10° NNE daylight
25 Nov - 15:27:09 10° NNW 15:29:08 13° N 15:31:07 10° NNE daylight
25 Nov - 17:10:52 10° NNW 17:14:01 19° NNE 17:17:11 10° ENE visible
25 Nov - 18:53:37 10° NW 18:57:58 66° NE 19:02:24 10° SE visible
25 Nov - 20:37:27 10° WNW 20:40:41 20° WSW 20:44:00 10° SSW visible
26 Nov - 09:41:38 10° SE 09:43:55 13° ESE 09:46:09 10° E daylight
26 Nov - 11:21:33 10° SSW 11:26:25 78° SE 11:30:56 10° NE daylight
26 Nov - 13:06:05 10° W 13:10:00 26° NNW 13:13:44 10° NNE daylight
26 Nov - 14:52:32 10° NW 14:54:40 13° N 14:56:45 10° NNE daylight
26 Nov - 16:36:47 10° NNW 16:39:36 16° NNE 16:42:26 10° ENE daylight
26 Nov - 18:19:32 10° NNW 18:23:46 48° NE 18:28:06 10° ESE visible
26 Nov - 20:02:57 10° WNW 20:06:44 29° WSW 20:10:35 10° S visible
27 Nov - 10:47:35 10° SSW 10:52:20 56° ESE 10:56:45 10° NE daylight
27 Nov - 12:31:29 10° W 12:35:42 32° NW 12:39:42 10° NNE daylight
27 Nov - 14:17:48 10° NW 14:20:11 14° NNW 14:22:31 10° NNE daylight
27 Nov - 16:02:41 10° NNW 16:05:10 15° NNE 16:07:39 10° NE daylight
27 Nov - 17:45:29 10° NNW 17:49:33 37° NE 17:53:40 10° ESE visible
27 Nov - 19:28:37 10° NW 19:32:43 41° WSW 19:36:57 10° S visible
28 Nov - 10:13:46 10° S 10:18:17 39° ESE 10:22:30 10° NE daylight
28 Nov - 11:56:57 10° WSW 12:01:25 40° NW 12:05:39 10° NNE daylight
28 Nov - 13:43:00 10° NW 13:45:43 15° NNW 13:48:22 10° NNE daylight
28 Nov - 15:28:30 10° NNW 15:30:42 13° N 15:32:53 10° NE daylight
28 Nov - 17:11:26 10° NNW 17:15:16 29° NE 17:19:08 10° E visible
28 Nov - 18:54:23 10° NW 18:58:40 59° WSW 19:03:06 10° SSE visible
